This is the latest recevied weather packets stored in our database for station/object W8LMG. If no packets are shown the sender has not sent any weather packets the latest 10 day(s).
| Time | Temp. | Humidity | Pressure | Rain* | Wind** | Luminosity | Snow |
|---|---|---|---|---|---|---|---|
| 1777641356 | 5° C | 89% | 1015.6 hPa | 0 mm | - | 209 W/m² | - |
| 1777641051 | 4.44° C | 91% | 1015.8 hPa | 0 mm | - | 191 W/m² | - |
| 1777640748 | 4.44° C | 93% | 1016 hPa | 0 mm | - | 183 W/m² | - |
| 1777640445 | 3.89° C | 94% | 1015.8 hPa | 0 mm | - | 149 W/m² | - |
| 1777640142 | 3.89° C | 95% | 1015.8 hPa | 0 mm | - | 157 W/m² | - |
| 1777639838 | 3.33° C | 96% | 1015.8 hPa | 0 mm | - | 99 W/m² | - |
| 1777639536 | 3.33° C | 96% | 1015.9 hPa | 0 mm | - | 96 W/m² | - |
| 1777639233 | 3.33° C | 97% | 1015.8 hPa | 0 mm | - | 95 W/m² | - |
| 1777638929 | 3.33° C | 97% | 1015.7 hPa | 0 mm | - | 98 W/m² | - |
| 1777638624 | 2.78° C | 98% | 1015.7 hPa | 0 mm | - | 84 W/m² | - |
| 1777638321 | 2.78° C | 99% | 1015.8 hPa | 0 mm | - | 73 W/m² | - |
| 1777638017 | 2.78° C | 99% | 1015.7 hPa | 0 mm | - | 84 W/m² | - |
| 1777637714 | 2.78° C | 99% | 1015.7 hPa | 0 mm | - | 68 W/m² | - |
| 1777637411 | 2.78° C | 99% | 1015.8 hPa | 0 mm | - | 72 W/m² | - |
| 1777637108 | 2.22° C | 99% | 1015.7 hPa | 0 mm | - | 68 W/m² | - |
| 1777636804 | 2.22° C | 99% | 1015.4 hPa | 0 mm | - | 61 W/m² | - |
| 1777636500 | 2.22° C | 99% | 1015.6 hPa | 0 mm | - | 61 W/m² | - |
| 1777636196 | 1.67° C | 99% | 1015.5 hPa | 0 mm | - | 50 W/m² | - |
| 1777635891 | 2.22° C | 99% | 1015.5 hPa | 0 mm | - | 42 W/m² | - |
| 1777635588 | 1.67° C | 99% | 1015.3 hPa | 0 mm | - | 42 W/m² | - |
| 1777635284 | 1.67° C | 99% | 1015.3 hPa | 0 mm | - | 42 W/m² | - |
| 1777634981 | 1.67° C | 99% | 1015.3 hPa | 0 mm | - | 36 W/m² | - |
| 1777634677 | 1.67° C | 99% | 1015.1 hPa | 0 mm | - | 24 W/m² | - |
| 1777634375 | 1.67° C | 99% | 1015.2 hPa | 0 mm | - | 22 W/m² | - |
| 1777634072 | 1.67° C | 99% | 1015.3 hPa | 0 mm | - | 22 W/m² | - |
* Rain latest hour (hover to see other rain measurements)
** Current wind speed in m/s (hover to see current wind gust speed)